SCP
1 1 1 1 1 0 1 1 1 1 1 1 1 1 1 0 0 0 1 1 0 0 0 0 0 0 0 0 0 0 1 0 0 0 0 0 0 0 0 0 0 0 0
2 1 1 1 1 1 0 1 1 1 1 1 1 1 1 1 1 1 0 1 1 0 0 0 0 0 0 0 0 0 0 0 0 0 0 0 0 0 0 0 -0 0 0
2 2 1 1 1 1 1 2 2 1 1 1 1 2 2 1 1 1 1 0 1 0 0 0 0 0 0 0 0 0 0 0 0 0 0 0 0 0 -0 0 -0 0 0
3 3 1 2 1 1 1 1 1 1 2 1 1 4 3 2 1 1 0 0 1 0 0 0 0 0 0 0 0 0 0 0 0 0 0 0 0 0 0 0 0 -0 0
3 2 2 1 2 1 1 1 1 1 1 1 1 4 2 2 1 0 0 1 1 0 0 0 0 0 0 0 0 0 0 0 0 0 0 0 0 0 0 0 0 0 -0
2 3 1 1 2 1 1 1 2 1 1 1 3 3 1 1 1 1 1 1 0 0 0 0 0 0 0 0 0 0 0 0 0 0 0 0 0 0 0 -0 -0 -0 -0
2 3 1 2 2 1 1 3 1 1 1 2 3 1 1 1 1 0 1 1 0 0 0 0 0 1 0 0 0 0 0 0 0 0 0 0 0 0 0 -0 0 0 -0
1 2 1 2 2 1 2 2 2 1 1 2 2 1 1 1 1 1 1 1 0 0 0 0 -0 0 0 0 0 0 0 0 0 0 0 0 0 0 0 0 0 -0 -0
2 2 1 2 2 1 1 2 1 1 3 2 1 1 0 1 1 0 0 0 0 0 0 1 0 0 0 0 0 0 0 0 0 0 0 0 0 0 0 0 -0 0 -0
2 2 1 1 2 1 2 1 1 2 2 1 1 1 0 0 0 1 1 0 0 0 0 0 0 0 0 0 0 0 0 0 0 0 0 0 0 0 -0 -0 -0 0 -0
2 1 1 1 1 1 3 2 2 2 1 1 1 0 0 0 0 0 0 0 0 0 0 0 0 0 0 0 0 0 0 0 0 1 0 0 0 -0 -0 -0 0 -0 -0
1 1 1 2 1 1 2 2 2 1 1 1 0 1 0 0 0 0 0 0 0 0 0 0 0 0 1 0 0 0 0 0 0 0 0 0 -0 -0 -0 -0 -0 -0 -0
1 1 2 2 1 1 2 1 1 1 1 0 0 0 0 0 0 0 0 0 0 0 0 0 0 0 1 0 0 0 0 0 0 0 -0 0 -0 -0 -0 0 -0 -0 -0
1 2 1 1 1 1 1 1 1 0 0 0 0 0 0 -0 0 0 0 0 0 0 0 0 0 0 1 1 0 0 0 0 0 0 0 0 0 -0 0 0 0 -0 -0
2 1 1 1 1 1 0 1 0 0 0 0 0 0 0 -0 -0 0 0 0 -0 0 0 0 0 0 0 0 0 0 0 0 0 0 0 0 0 0 0 0 -0 -0 -0
1 1 1 1 1 0 0 0 0 1 0 1 0 0 0 0 -0 0 0 -0 0 0 0 0 0 0 0 1 0 0 0 0 0 0 0 0 0 0 0 0 -0 -0 -0
1 0 1 0 0 0 0 0 0 0 0 0 0 0 0 0 -0 0 0 -0 0 0 0 0 0 0 0 0 0 0 0 0 0 0 0 0 0 0 0 0 -0 -0 -0
0 0 0 0 0 0 0 0 0 0 0 0 0 0 0 0 0 0 0 0 0 0 0 0 0 0 0 0 0 0 0 0 0 0 0 0 0 0 0 -0 -0 -0 -0
0 0 0 0 0 0 0 0 0 0 0 0 0 0 0 0 0 0 0 0 0 0 0 0 0 0 0 0 0 0 0 0 0 0 0 0 0 0 0 0 0 0 -0
0 0 0 0 0 0 0 0 0 0 0 0 0 0 -0 0 0 0 0 0 0 0 0 0 0 0 0 0 0 0 0 0 0 0 0 0 0 0 0 0 0 0 -0
0 0 0 0 0 0 0 0 0 0 0 0 0 0 -0 0 0 0 0 0 0 0 0 0 0 0 0 0 0 0 0 0 0 0 0 0 0 0 0 0 0 0 0
0 0 0 0 0 0 0 0 0 0 0 0 0 -0 0 0 0 0 0 0 0 0 0 0 0 0 0 0 0 0 0 0 0 0 0 0 0 0 0 0 0 -0 0
0 0 0 0 0 0 0 0 0 0 0 0 0 -0 0 0 0 0 0 0 0 0 0 0 0 0 0 0 0 0 0 0 0 0 0 0 0 0 0 0 0 -0 -0
0 0 0 0 0 0 0 0 0 0 0 0 0 -0 0 0 0 0 0 0 0 0 0 0 0 0 0 0 0 0 0 0 0 0 0 0 0 0 0 0 0 0 0
0 0 0 0 -0 -0 0 0 0 0 0 0 -0 -0 0 0 0 0 0 0 0 0 0 0 0 0 0 0 0 0 0 0 0 0 0 0 0 0 0 0 0 0 0
0 0 0 0 -0 -0 0 0 0 0 -0 -0 -0 -0 0 0 0 0 0 0 0 0 0 0 0 0 0 0 0 0 0 0 0 0 0 0 0 0 0 0 0 0 -0
Wind_Speed_500mb
59 58 58 49 46 39 44 43 41 36 35 32 33 32 30 29 27 23 23 33 35 35 26 23 25 33 35 35 32 31 30 22 21 25 27 37 31 37 34 36 33 35 37
59 57 60 53 51 44 41 42 42 41 39 36 35 34 36 33 30 28 25 36 32 34 29 27 25 28 38 38 35 31 33 28 23 26 26 30 28 27 31 17 28 28 31
58 63 57 52 52 52 49 48 44 42 38 36 35 35 37 35 36 35 34 31 34 33 29 27 29 24 34 38 35 34 33 32 24 31 29 41 26 31 26 24 37 36 30
66 62 55 53 51 49 47 46 43 43 45 37 36 38 45 39 36 39 33 31 37 39 31 25 24 27 29 36 35 32 31 31 25 29 29 40 37 37 28 17 40 30 28
58 55 53 51 52 48 49 46 46 48 40 36 35 46 39 41 32 35 30 33 40 34 35 26 27 28 31 34 35 34 32 29 25 25 30 33 38 34 27 22 30 27 21
52 52 47 48 51 48 48 47 47 44 38 35 35 36 33 28 28 30 38 43 47 38 38 34 28 24 38 35 37 36 33 29 26 27 31 32 32 31 29 39 28 27 25
46 52 45 44 48 47 47 55 46 45 35 34 34 28 33 39 37 28 42 38 37 34 38 40 31 30 33 31 38 36 36 33 26 27 33 35 35 30 22 28 28 32 39
44 46 46 42 51 39 50 49 46 34 36 36 25 24 26 27 29 27 32 35 40 34 42 41 32 34 31 32 36 38 35 32 28 27 34 37 33 30 27 29 34 35 31
47 49 47 42 43 40 37 47 38 39 35 26 24 21 18 7 11 13 20 30 32 40 42 46 36 38 41 32 30 32 34 32 27 29 35 33 30 32 37 33 29 28 27
52 46 47 43 39 34 33 34 35 34 33 21 20 22 29 23 9 7 14 20 26 34 38 34 42 32 30 41 24 21 30 34 35 36 37 36 36 38 29 25 29 34 40
37 38 36 37 35 34 35 30 32 30 25 28 22 20 18 21 26 24 15 17 20 26 27 22 26 27 26 25 24 23 27 34 39 43 38 37 39 42 29 33 36 36 40
38 38 35 37 33 31 31 31 32 30 28 23 21 22 19 17 24 26 21 16 25 21 26 18 22 31 29 19 22 22 29 30 33 43 43 41 40 36 31 38 38 42 33
40 43 40 36 30 30 28 29 33 28 25 19 22 20 21 28 20 23 19 14 11 15 22 23 21 31 36 20 23 23 30 32 35 37 39 41 41 39 34 37 41 36 33
35 38 38 33 28 25 31 27 24 22 18 21 21 20 23 16 20 18 23 23 15 13 19 21 26 29 38 32 28 26 31 34 37 36 41 40 39 34 37 34 38 34 37
37 34 31 28 27 30 24 26 18 19 22 27 22 21 20 20 17 20 15 16 21 15 19 24 28 33 34 37 29 25 30 38 39 36 40 41 37 34 39 39 39 38 41
32 33 29 27 29 20 17 20 19 24 31 29 22 21 23 20 22 13 17 20 22 16 22 31 25 38 34 34 39 31 31 38 38 39 38 41 36 37 39 40 35 39 38
31 28 25 23 21 21 20 22 26 25 25 29 29 19 21 19 19 24 21 17 22 22 28 32 33 38 37 34 39 30 35 40 40 37 41 41 37 41 42 41 40 39 38
27 25 24 22 20 17 20 18 17 17 22 29 29 26 19 15 20 27 23 25 20 15 30 37 42 37 34 31 37 39 40 44 41 41 41 43 39 42 45 42 41 41 36
27 24 22 19 17 14 13 12 16 24 28 31 31 34 25 16 18 26 28 29 22 20 33 40 46 43 44 38 39 39 41 43 41 42 45 42 42 45 46 45 41 37 32
26 24 23 17 11 8 10 14 19 21 21 25 29 35 32 16 16 26 25 25 25 27 40 43 44 46 44 42 42 46 46 43 50 46 47 48 49 53 50 44 40 36 37
26 23 17 13 10 7 11 12 4 7 17 23 25 37 33 23 21 23 20 24 32 33 39 39 42 46 48 48 52 51 53 54 53 52 56 57 54 54 47 38 41 38 37
27 22 16 13 9 8 4 4 8 5 3 8 16 30 31 30 24 24 33 29 34 40 39 38 49 49 50 57 55 54 58 61 66 65 63 60 58 48 45 39 41 44 40
25 22 16 8 8 5 4 8 13 11 8 15 21 26 23 22 25 25 34 31 29 32 27 33 54 56 54 59 59 56 54 63 77 72 55 59 41 37 40 38 46 44 38
23 21 18 13 7 7 8 13 16 10 10 15 17 22 23 19 25 23 30 29 29 26 21 24 47 54 53 51 54 61 70 78 72 68 62 59 51 43 32 39 47 43 34
21 21 18 15 10 9 8 11 8 5 10 13 17 22 28 26 25 37 32 34 35 31 27 26 32 42 55 54 58 71 64 69 67 63 38 60 56 28 24 34 44 39 36
20 19 18 15 13 8 7 12 12 9 5 9 18 21 25 32 28 34 32 37 36 33 29 30 32 41 58 54 66 50 49 60 70 54 37 52 47 27 19 25 36 38 35
Wind_Direction_500mb
229 228 223 221 228 221 234 223 225 234 230 231 238 245 249 250 251 249 257 272 281 293 268 256 250 236 229 227 224 226 226 228 231 217 223 217 193 214 211 224 227 215 218
227 223 225 226 220 227 224 230 225 226 231 234 241 242 249 248 248 251 253 267 273 283 279 261 256 245 228 224 223 224 226 224 229 213 219 194 209 213 202 236 220 220 230
229 226 223 223 222 221 224 226 227 230 229 236 239 245 255 241 248 247 253 253 268 276 277 272 252 248 226 221 220 222 224 226 223 210 214 204 215 211 219 232 217 228 217
240 223 219 225 220 220 223 224 226 227 230 230 240 245 235 240 246 252 245 253 262 264 267 268 254 243 228 221 220 218 221 215 222 215 212 210 214 219 216 218 233 213 215
230 214 219 219 221 218 219 222 222 225 228 233 241 241 247 255 238 252 246 252 246 250 259 259 254 247 232 223 219 216 211 215 221 218 210 210 214 205 208 198 196 195 203
218 224 213 212 218 214 216 219 221 222 226 238 242 254 264 252 242 248 248 241 244 233 238 246 253 254 234 225 218 215 210 213 215 211 205 199 195 198 220 182 175 175 174
213 221 206 217 209 212 212 219 216 219 226 235 242 250 253 253 255 256 258 251 239 228 241 224 233 235 230 225 216 212 207 209 210 205 195 196 194 198 174 164 171 175 175
210 213 194 211 213 209 212 214 213 215 223 230 226 254 266 262 238 242 252 240 244 219 224 235 204 227 219 210 209 203 202 206 206 197 188 197 200 196 190 174 181 181 169
205 208 189 203 218 194 212 211 210 204 214 218 225 234 268 261 268 257 257 240 227 208 219 223 210 210 212 185 197 198 200 200 197 182 186 185 190 187 174 178 184 162 166
204 209 194 195 203 192 208 202 206 207 215 224 228 251 247 254 254 263 255 242 228 228 221 219 194 200 199 189 176 195 191 191 183 169 178 178 177 173 181 178 150 153 168
200 195 186 183 196 180 202 198 199 210 224 228 234 248 236 246 244 245 258 239 213 222 221 210 217 193 167 175 167 187 170 180 184 165 176 178 176 172 174 158 154 161 174
178 175 175 184 188 179 200 194 208 219 227 229 236 247 237 237 244 237 237 226 204 214 206 218 202 185 165 164 171 166 171 172 170 171 179 176 177 175 168 157 161 172 182
171 173 178 181 184 183 201 197 217 223 232 222 229 235 234 240 240 237 219 207 197 187 186 202 201 185 167 176 158 165 170 169 169 173 177 174 180 179 167 171 165 175 173
170 182 176 180 188 199 209 213 217 227 216 221 215 227 228 230 234 232 226 211 183 183 187 182 185 179 167 189 167 167 167 172 172 171 174 179 177 176 171 171 172 171 166
173 170 176 189 196 211 207 219 221 206 216 214 219 235 233 233 217 221 216 204 193 173 174 180 167 172 165 179 166 167 173 173 174 171 175 175 175 176 170 162 163 167 166
163 171 181 193 201 203 208 215 214 222 220 226 225 235 229 228 221 211 207 209 214 199 168 178 167 161 165 167 168 172 172 170 171 171 174 172 170 173 166 162 168 165 170
163 170 183 193 203 202 204 216 225 226 225 227 219 224 228 229 220 191 206 198 204 181 179 161 163 165 167 157 166 168 165 171 168 169 169 169 171 170 162 168 166 173 175
165 177 182 182 187 197 214 226 235 228 237 230 220 215 221 230 220 191 190 207 196 178 162 157 159 157 159 163 165 160 160 165 166 163 170 167 173 169 170 168 172 175 175
163 166 169 176 189 201 241 235 241 245 230 231 227 218 220 212 214 198 186 197 195 188 175 160 157 168 165 168 168 167 161 161 162 159 165 171 174 169 170 171 174 174 180
157 162 175 169 185 203 232 234 253 247 227 239 232 224 221 202 209 194 189 186 183 168 171 167 168 170 172 166 171 163 158 161 155 161 167 178 173 173 171 176 175 183 178
165 168 153 164 178 226 233 251 213 246 232 243 241 225 197 201 207 192 180 181 168 160 166 169 171 168 165 168 170 168 164 159 157 167 172 167 170 170 173 181 180 180 186
156 153 159 170 186 209 238 215 183 186 217 170 175 186 195 209 198 199 178 168 176 170 176 182 176 174 172 175 175 174 167 160 153 172 170 167 172 171 177 182 188 184 188
161 157 145 183 157 159 134 133 133 135 147 138 149 173 190 196 190 186 180 172 169 171 202 192 181 181 180 178 178 173 165 166 167 169 184 162 162 168 179 188 181 187 195
166 150 140 140 152 126 113 130 132 166 172 156 161 172 172 171 176 161 161 161 170 179 177 182 186 185 181 179 184 169 167 163 161 166 173 159 166 174 184 196 196 200 212
153 141 140 138 129 126 117 118 113 188 169 168 170 170 174 171 178 153 162 162 170 176 173 189 191 187 175 177 173 173 171 162 162 168 166 172 169 170 184 199 201 212 213
150 146 137 139 133 129 107 97 96 93 121 160 171 173 178 180 172 162 180 171 173 181 173 164 167 171 183 176 171 169 168 168 163 163 176 177 174 164 194 214 211 212 219
Wind_Speed_850mb
59 58 58 49 46 39 44 43 41 36 35 32 33 32 30 29 27 23 23 33 35 35 26 23 25 33 35 35 32 31 30 22 21 25 27 37 31 37 34 36 33 35 37
59 57 60 53 51 44 41 42 42 41 39 36 35 34 36 33 30 28 25 36 32 34 29 27 25 28 38 38 35 31 33 28 23 26 26 30 28 27 31 17 28 28 31
58 63 57 52 52 52 49 48 44 42 38 36 35 35 37 35 36 35 34 31 34 33 29 27 29 24 34 38 35 34 33 32 24 31 29 41 26 31 26 24 37 36 30
66 62 55 53 51 49 47 46 43 43 45 37 36 38 45 39 36 39 33 31 37 39 31 25 24 27 29 36 35 32 31 31 25 29 29 40 37 37 28 17 40 30 28
58 55 53 51 52 48 49 46 46 48 40 36 35 46 39 41 32 35 30 33 40 34 35 26 27 28 31 34 35 34 32 29 25 25 30 33 38 34 27 22 30 27 21
52 52 47 48 51 48 48 47 47 44 38 35 35 36 33 28 28 30 38 43 47 38 38 34 28 24 38 35 37 36 33 29 26 27 31 32 32 31 29 39 28 27 25
46 52 45 44 48 47 47 55 46 45 35 34 34 28 33 39 37 28 42 38 37 34 38 40 31 30 33 31 38 36 36 33 26 27 33 35 35 30 22 28 28 32 39
44 46 46 42 51 39 50 49 46 34 36 36 25 24 26 27 29 27 32 35 40 34 42 41 32 34 31 32 36 38 35 32 28 27 34 37 33 30 27 29 34 35 31
47 49 47 42 43 40 37 47 38 39 35 26 24 21 18 7 11 13 20 30 32 40 42 46 36 38 41 32 30 32 34 32 27 29 35 33 30 32 37 33 29 28 27
52 46 47 43 39 34 33 34 35 34 33 21 20 22 29 23 9 7 14 20 26 34 38 34 42 32 30 41 24 21 30 34 35 36 37 36 36 38 29 25 29 34 40
37 38 36 37 35 34 35 30 32 30 25 28 22 20 18 21 26 24 15 17 20 26 27 22 26 27 26 25 24 23 27 34 39 43 38 37 39 42 29 33 36 36 40
38 38 35 37 33 31 31 31 32 30 28 23 21 22 19 17 24 26 21 16 25 21 26 18 22 31 29 19 22 22 29 30 33 43 43 41 40 36 31 38 38 42 33
40 43 40 36 30 30 28 29 33 28 25 19 22 20 21 28 20 23 19 14 11 15 22 23 21 31 36 20 23 23 30 32 35 37 39 41 41 39 34 37 41 36 33
35 38 38 33 28 25 31 27 24 22 18 21 21 20 23 16 20 18 23 23 15 13 19 21 26 29 38 32 28 26 31 34 37 36 41 40 39 34 37 34 38 34 37
37 34 31 28 27 30 24 26 18 19 22 27 22 21 20 20 17 20 15 16 21 15 19 24 28 33 34 37 29 25 30 38 39 36 40 41 37 34 39 39 39 38 41
32 33 29 27 29 20 17 20 19 24 31 29 22 21 23 20 22 13 17 20 22 16 22 31 25 38 34 34 39 31 31 38 38 39 38 41 36 37 39 40 35 39 38
31 28 25 23 21 21 20 22 26 25 25 29 29 19 21 19 19 24 21 17 22 22 28 32 33 38 37 34 39 30 35 40 40 37 41 41 37 41 42 41 40 39 38
27 25 24 22 20 17 20 18 17 17 22 29 29 26 19 15 20 27 23 25 20 15 30 37 42 37 34 31 37 39 40 44 41 41 41 43 39 42 45 42 41 41 36
27 24 22 19 17 14 13 12 16 24 28 31 31 34 25 16 18 26 28 29 22 20 33 40 46 43 44 38 39 39 41 43 41 42 45 42 42 45 46 45 41 37 32
26 24 23 17 11 8 10 14 19 21 21 25 29 35 32 16 16 26 25 25 25 27 40 43 44 46 44 42 42 46 46 43 50 46 47 48 49 53 50 44 40 36 37
26 23 17 13 10 7 11 12 4 7 17 23 25 37 33 23 21 23 20 24 32 33 39 39 42 46 48 48 52 51 53 54 53 52 56 57 54 54 47 38 41 38 37
27 22 16 13 9 8 4 4 8 5 3 8 16 30 31 30 24 24 33 29 34 40 39 38 49 49 50 57 55 54 58 61 66 65 63 60 58 48 45 39 41 44 40
25 22 16 8 8 5 4 8 13 11 8 15 21 26 23 22 25 25 34 31 29 32 27 33 54 56 54 59 59 56 54 63 77 72 55 59 41 37 40 38 46 44 38
23 21 18 13 7 7 8 13 16 10 10 15 17 22 23 19 25 23 30 29 29 26 21 24 47 54 53 51 54 61 70 78 72 68 62 59 51 43 32 39 47 43 34
21 21 18 15 10 9 8 11 8 5 10 13 17 22 28 26 25 37 32 34 35 31 27 26 32 42 55 54 58 71 64 69 67 63 38 60 56 28 24 34 44 39 36
20 19 18 15 13 8 7 12 12 9 5 9 18 21 25 32 28 34 32 37 36 33 29 30 32 41 58 54 66 50 49 60 70 54 37 52 47 27 19 25 36 38 35
Wind_Direction_850mb
229 228 223 221 228 221 234 223 225 234 230 231 238 245 249 250 251 249 257 272 281 293 268 256 250 236 229 227 224 226 226 228 231 217 223 217 193 214 211 224 227 215 218
227 223 225 226 220 227 224 230 225 226 231 234 241 242 249 248 248 251 253 267 273 283 279 261 256 245 228 224 223 224 226 224 229 213 219 194 209 213 202 236 220 220 230
229 226 223 223 222 221 224 226 227 230 229 236 239 245 255 241 248 247 253 253 268 276 277 272 252 248 226 221 220 222 224 226 223 210 214 204 215 211 219 232 217 228 217
240 223 219 225 220 220 223 224 226 227 230 230 240 245 235 240 246 252 245 253 262 264 267 268 254 243 228 221 220 218 221 215 222 215 212 210 214 219 216 218 233 213 215
230 214 219 219 221 218 219 222 222 225 228 233 241 241 247 255 238 252 246 252 246 250 259 259 254 247 232 223 219 216 211 215 221 218 210 210 214 205 208 198 196 195 203
218 224 213 212 218 214 216 219 221 222 226 238 242 254 264 252 242 248 248 241 244 233 238 246 253 254 234 225 218 215 210 213 215 211 205 199 195 198 220 182 175 175 174
213 221 206 217 209 212 212 219 216 219 226 235 242 250 253 253 255 256 258 251 239 228 241 224 233 235 230 225 216 212 207 209 210 205 195 196 194 198 174 164 171 175 175
210 213 194 211 213 209 212 214 213 215 223 230 226 254 266 262 238 242 252 240 244 219 224 235 204 227 219 210 209 203 202 206 206 197 188 197 200 196 190 174 181 181 169
205 208 189 203 218 194 212 211 210 204 214 218 225 234 268 261 268 257 257 240 227 208 219 223 210 210 212 185 197 198 200 200 197 182 186 185 190 187 174 178 184 162 166
204 209 194 195 203 192 208 202 206 207 215 224 228 251 247 254 254 263 255 242 228 228 221 219 194 200 199 189 176 195 191 191 183 169 178 178 177 173 181 178 150 153 168
200 195 186 183 196 180 202 198 199 210 224 228 234 248 236 246 244 245 258 239 213 222 221 210 217 193 167 175 167 187 170 180 184 165 176 178 176 172 174 158 154 161 174
178 175 175 184 188 179 200 194 208 219 227 229 236 247 237 237 244 237 237 226 204 214 206 218 202 185 165 164 171 166 171 172 170 171 179 176 177 175 168 157 161 172 182
171 173 178 181 184 183 201 197 217 223 232 222 229 235 234 240 240 237 219 207 197 187 186 202 201 185 167 176 158 165 170 169 169 173 177 174 180 179 167 171 165 175 173
170 182 176 180 188 199 209 213 217 227 216 221 215 227 228 230 234 232 226 211 183 183 187 182 185 179 167 189 167 167 167 172 172 171 174 179 177 176 171 171 172 171 166
173 170 176 189 196 211 207 219 221 206 216 214 219 235 233 233 217 221 216 204 193 173 174 180 167 172 165 179 166 167 173 173 174 171 175 175 175 176 170 162 163 167 166
163 171 181 193 201 203 208 215 214 222 220 226 225 235 229 228 221 211 207 209 214 199 168 178 167 161 165 167 168 172 172 170 171 171 174 172 170 173 166 162 168 165 170
163 170 183 193 203 202 204 216 225 226 225 227 219 224 228 229 220 191 206 198 204 181 179 161 163 165 167 157 166 168 165 171 168 169 169 169 171 170 162 168 166 173 175
165 177 182 182 187 197 214 226 235 228 237 230 220 215 221 230 220 191 190 207 196 178 162 157 159 157 159 163 165 160 160 165 166 163 170 167 173 169 170 168 172 175 175
163 166 169 176 189 201 241 235 241 245 230 231 227 218 220 212 214 198 186 197 195 188 175 160 157 168 165 168 168 167 161 161 162 159 165 171 174 169 170 171 174 174 180
157 162 175 169 185 203 232 234 253 247 227 239 232 224 221 202 209 194 189 186 183 168 171 167 168 170 172 166 171 163 158 161 155 161 167 178 173 173 171 176 175 183 178
165 168 153 164 178 226 233 251 213 246 232 243 241 225 197 201 207 192 180 181 168 160 166 169 171 168 165 168 170 168 164 159 157 167 172 167 170 170 173 181 180 180 186
156 153 159 170 186 209 238 215 183 186 217 170 175 186 195 209 198 199 178 168 176 170 176 182 176 174 172 175 175 174 167 160 153 172 170 167 172 171 177 182 188 184 188
161 157 145 183 157 159 134 133 133 135 147 138 149 173 190 196 190 186 180 172 169 171 202 192 181 181 180 178 178 173 165 166 167 169 184 162 162 168 179 188 181 187 195
166 150 140 140 152 126 113 130 132 166 172 156 161 172 172 171 176 161 161 161 170 179 177 182 186 185 181 179 184 169 167 163 161 166 173 159 166 174 184 196 196 200 212
153 141 140 138 129 126 117 118 113 188 169 168 170 170 174 171 178 153 162 162 170 176 173 189 191 187 175 177 173 173 171 162 162 168 166 172 169 170 184 199 201 212 213
150 146 137 139 133 129 107 97 96 93 121 160 171 173 178 180 172 162 180 171 173 181 173 164 167 171 183 176 171 169 168 168 163 163 176 177 174 164 194 214 211 212 219